Regional Weather Roundup
Issued by NWS Little Rock, AR

Home | Current Version | Previous Version | Graphics & Text | Print | Product List | Glossary On
Versions: 1 2 3 4 5 6 7 8 9 10 11 12 13 14 15 16 17 18 19 20 21 22 23 24 25 26 27 28 29 30 31 32 33 34 35 36 37 38 39 40 41 42 43 44
000
ASUS44 KLZK 240405
RWRLZK

WEATHER ROUNDUP FOR ARKANSAS
NATIONAL WEATHER SERVICE LITTLE ROCK AR
1000 PM CST THU FEB 23 2017

NOTE: "FAIR" INDICATES FEW OR NO CLOUDS BELOW 12,000 FEET WITH NO
SIGNIFICANT WEATHER AND/OR OBSTRUCTIONS TO VISIBILITY.

ARZ001-003-010-029-240500-
NORTHWEST ARKANSAS

CITY           SKY/WX    TMP DP  RH WIND       PRES   REMARKS
FAYETTEVILLE   CLEAR     68  51  54 S18G30    29.49F
FORT SMITH     CLEAR     66  51  58 E6        29.51R
HARRISON       CLEAR     68  53  58 S18G30    29.53S
BENTONVILLE    PTCLDY    68  48  49 S15G23    29.49F
ROGERS         CLEAR     69  51  52 S16G25    29.49F
SILOAM SPGS    CLEAR     70  48  46 S16G26    29.47F
HIGHFILL       PTCLDY    68  51  54 S17       29.47F
$$

ARZ004-005-016-240500-
NORTH CENTRAL ARKANSAS

CITY           SKY/WX    TMP DP  RH WIND       PRES   REMARKS
BATESVILLE     CLEAR     66  54  63 S10G16    29.60F
FLIPPIN        PTCLDY    70  52  52 S13G23    29.53R
$$

ARZ040-041-240500-
WEST CENTRAL ARKANSAS

CITY           SKY/WX    TMP DP  RH WIND       PRES   REMARKS
MENA           CLEAR     72  55  56 S12G18    29.59R
MOUNT IDA      CLEAR     71  54  54 MISG      29.57R
$$

ARZ009-017-025-026-028-240500-
NORTHEAST ARKANSAS

CITY           SKY/WX    TMP DP  RH WIND       PRES   REMARKS
CORNING        FAIR      66  57  72 S17G24    29.60F
JONESBORO      CLEAR     62  55  77 S7        29.62S
NEWPORT        CLEAR     63  56  78 MISG      29.60F
WALNUT RIDGE   MOCLDY    63  54  72 S16       29.60F
BLYTHEVILLE    CLEAR     65  59  81 S14       29.65S
$$

ARZ022-023-033-042-044-240500-
CENTRAL ARKANSAS

CITY           SKY/WX    TMP DP  RH WIND       PRES   REMARKS
LITTLE ROCK    PTCLDY    63  56  78 S7        29.62S
N LITTLE ROCK    N/A     66  56  71 S9        29.61F
JACKSONVILLE   PTCLDY    65  58  76 CALM      29.61F
SEARCY         PTCLDY    63  58  83 S10       29.63S
HOT SPRINGS    CLEAR     70  56  61 S8        29.61S
RUSSELLVILLE   CLEAR     64  55  72 E8        29.56S
CLINTON        FAIR      57  55  94 CALM      29.59S
$$

ARZ036-240500-
EAST ARKANSAS

CITY           SKY/WX    TMP DP  RH WIND       PRES   REMARKS
WEST MEMPHIS   PTCLDY    61  58  90 S8        29.67R
$$

ARZ050-053-066-070-073-240500-
SOUTHWEST ARKANSAS

CITY           SKY/WX    TMP DP  RH WIND       PRES   REMARKS
ARKADELPHIA    FAIR      63  57  81 SE3       29.61F
CAMDEN         CLEAR     68  52  56 S9G18     29.63F
TEXARKANA      CLEAR     69  55  60 S18G25    29.59S
EL DORADO      CLEAR     67  55  65 S9        29.66R
DE QUEEN       CLEAR     71  57  61 VRB3      29.57R
$$

ARZ056-057-069-240500-
SOUTHEAST ARKANSAS

CITY           SKY/WX    TMP DP  RH WIND       PRES   REMARKS
PINE BLUFF     CLEAR     66  56  70 S15       29.65R
STUTTGART      CLEAR     66  52  59 S13       29.65F
MONTICELLO     CLEAR     66  56  70 S6        29.67R

$$






USA.gov is the U.S. government's official web portal to all federal, state and local government web resources and services.